SL-14 DEB

Satellite information

Favourite Embed

Satellite Type and Status

DEBRISIN ORBIT

Key statistics

Satellite SL-14 DEB at a glance.

Uptime

13838

Days in orbit

Revolutions

≈ 14.3

Per day

Orbit

LEO

Low Earth Orbit

Inclination

82.3

Latest

Satellite identification and parameters

Extended collection of information and parameters for SL-14 DEB.

Object identification

Identified? True

Debris? True

Object name: SL-14 DEB

International designator: 1987-068AE

Object number (NORAD): 25203

Object ID (CCSDS): 25203

Country: COMMONWEALTH OF INDEPENDENT STATES (CIS)

Current information (Y/N): Y

RCS size: SMALL

Orbital parameters

Period: 101.002 minutes

Inclination: 82.2662 deg

SMA: 7184.219 km

Apoapsis: 871.385 km

Periapsis: 740.783 km

RAAN: 166.6779 deg

Eccentricy: 0.0090895

Argument of periapsis: 319.2103 deg

Mean anomaly: 40.2297 deg

Mean motion: 14.25717258 rev/day

Mean motion (dot): 0.00001045 rev/day2

B* drag term: 0.00041603 1/REarth

Two-line elements (TLE)

Creation date: July 6, 2025, 6:05 p.m.

Reference frame: TEME

Reference center: EARTH

Epoch: July 6, 2025, 9:06 a.m. UTC

TLE line 0: 0 SL-14 DEB

TLE line 1: 1 25203U 87068AE 25187.37980997 .00001045 00000-0 41603-3 0 9993

TLE line 2: 2 25203 82.2662 166.6779 0090895 319.2103 40.2297 14.25717258415817

Live tracking on map

Real-time ground track for satellite SL-14 DEB.

In-orbit conjunctions

A list of the most updated potential collisions computed for object SL-14 DEB.

Target Orbit TCA Probability of collision Miss distance Type
FENGYUN 1C DEB MEO 2025-04-06 23:57:58 0.0001649726 17.0 (m) DEBRIS
FENGYUN 1C DEB SSO 2025-03-11 06:00:34 0.0001028089 65.0 (m) DEBRIS
IRIDIUM 33 DEB LEO 2024-11-12 06:21:22 0.0001910355 975.0 (m) DEBRIS
FENGYUN 1C DEB SSO 2024-09-22 23:05:13 0.0001346157 90.0 (m) DEBRIS
DMSP 5D-2 F13 DEB SSO 2024-08-22 06:24:39 0.0001229412 166.0 (m) DEBRIS

Associated space launch

Second generation soviet meteorological satellite

SL-14 DEB was lifted into orbit during the mission ‘Tsiklon-3 | Meteor-2 16’, on board a Tsiklon-3 space rocket.

The launch took place on Aug. 18, 1987, 2:27 a.m. from 32/1.

For more information about the launch, click the button.

Launch to space Tsiklon-3 | Meteor-2 16
Tsiklon-3 | Meteor-2 16

Agency: N/A

Status: Launch Successful

Launch date: Aug. 18, 1987, 2:27 a.m. UTC

Rocket: Tsiklon-3

Launch pad: 32/1

Location: Plesetsk Cosmodrome, Russian Federation

...

Latest news about this satellite

There are no fresh news available about this satellite. Check back as we update our databases every day.


Newsletter sign-up

Weekly statistics, charts and insights to help you stay on top of the space industry.